| time (UTC) | temp F | wind direction | speed MPH | gust MPH | rain 1hr in | rain 24hr in | rain mn in | humidity % | barometer mb |
| 20260506004652 | 43 | 246 | 0.0 | 1.0 | 0.00 | 0.01 | 0.01 | 65 | 1013.7 |
| 20260506004151 | 44 | 175 | 0.0 | 2.0 | 0.00 | 0.01 | 0.01 | 64 | 1013.8 |
| 20260506003649 | 44 | 212 | 0.0 | 3.0 | 0.00 | 0.01 | 0.01 | 62 | 1013.7 |
| 20260506003206 | 45 | 250 | 1.0 | 5.0 | 0.00 | 0.01 | 0.01 | 61 | 1013.8 |
| 20260506002703 | 45 | 253 | 1.0 | 5.0 | 0.00 | 0.01 | 0.01 | 62 | 1013.6 |
| 20260506002201 | 45 | 178 | 1.0 | 5.0 | 0.00 | 0.01 | 0.01 | 61 | 1013.5 |
| 20260506001659 | 45 | 255 | 0.0 | 3.0 | 0.00 | 0.01 | 0.01 | 60 | 1013.7 |
| 20260506001201 | 45 | 229 | 1.0 | 3.0 | 0.00 | 0.01 | 0.01 | 61 | 1013.5 |
| 20260506000659 | 44 | 283 | 0.0 | 3.0 | 0.00 | 0.01 | 0.01 | 63 | 1013.5 |
| 20260506000156 | 44 | 266 | 1.0 | 3.0 | 0.00 | 0.01 | 0.01 | 61 | 1013.7 |
| 20260505235654 | 45 | 257 | 1.0 | 3.0 | 0.00 | 0.01 | 0.01 | 61 | 1013.7 |
| 20260505235151 | 46 | 257 | 1.0 | 4.0 | 0.00 | 0.01 | 0.01 | 59 | 1013.6 |
| 20260505234649 | 46 | 266 | 1.0 | 4.0 | 0.00 | 0.01 | 0.01 | 61 | 1013.5 |
| 20260505234147 | 45 | 255 | 1.0 | 6.0 | 0.00 | 0.01 | 0.01 | 59 | 1013.5 |
| 20260505233705 | 45 | 236 | 2.0 | 5.0 | 0.00 | 0.01 | 0.01 | 60 | 1013.4 |
| 20260505233203 | 46 | 193 | 1.0 | 5.0 | 0.00 | 0.01 | 0.01 | 57 | 1013.4 |
| 20260505232721 | 45 | 285 | 1.0 | 5.0 | 0.00 | 0.01 | 0.01 | 59 | 1013.4 |
| 20260505232158 | 45 | 219 | 1.0 | 6.0 | 0.00 | 0.01 | 0.01 | 58 | 1013.3 |
| 20260505231715 | 46 | 245 | 1.0 | 6.0 | 0.00 | 0.01 | 0.01 | 58 | 1013.3 |
| 20260505231152 | 45 | 262 | 0.0 | 8.0 | 0.00 | 0.01 | 0.01 | 59 | 1013.3 |
| 20260505230649 | 45 | 296 | 1.0 | 8.0 | 0.00 | 0.01 | 0.01 | 58 | 1013.4 |
| 20260505230148 | 45 | 160 | 2.0 | 4.0 | 0.00 | 0.01 | 0.01 | 57 | 1013.4 |
| 20260505225707 | 45 | 241 | 2.0 | 6.0 | 0.00 | 0.01 | 0.01 | 60 | 1013.4 |
| 20260505225225 | 46 | 217 | 2.0 | 6.0 | 0.00 | 0.01 | 0.01 | 58 | 1013.5 |
| 20260505224701 | 46 | 264 | 1.0 | 4.0 | 0.00 | 0.01 | 0.01 | 57 | 1013.5 |
| 20260505224219 | 46 | 249 | 1.0 | 4.0 | 0.00 | 0.01 | 0.01 | 54 | 1013.5 |
| 20260505223700 | 47 | 269 | 0.0 | 4.0 | 0.00 | 0.01 | 0.01 | 57 | 1013.5 |
| 20260505223157 | 47 | 261 | 1.0 | 4.0 | 0.00 | 0.01 | 0.01 | 55 | 1013.6 |
| 20260505222655 | 47 | 33 | 1.0 | 5.0 | 0.00 | 0.01 | 0.01 | 56 | 1013.6 |
| 20260505222154 | 46 | 263 | 1.0 | 5.0 | 0.00 | 0.01 | 0.01 | 56 | 1013.7 |
| 20260505221651 | 47 | 254 | 1.0 | 4.0 | 0.00 | 0.01 | 0.01 | 56 | 1013.7 |
| 20260505221149 | 47 | 278 | 1.0 | 5.0 | 0.00 | 0.01 | 0.01 | 53 | 1013.7 |
| 20260505220647 | 46 | 249 | 0.0 | 5.0 | 0.00 | 0.01 | 0.01 | 57 | 1013.8 |
| 20260505220206 | 46 | 252 | 2.0 | 5.0 | 0.00 | 0.01 | 0.01 | 57 | 1013.8 |
| 20260505215704 | 46 | 146 | 1.0 | 6.0 | 0.00 | 0.01 | 0.01 | 54 | 1013.8 |
| 20260505215202 | 45 | 155 | 1.0 | 6.0 | 0.00 | 0.01 | 0.01 | 56 | 1013.8 |
| 20260505214700 | 45 | 252 | 1.0 | 8.0 | 0.00 | 0.01 | 0.01 | 57 | 1013.8 |
| 20260505214159 | 45 | 240 | 2.0 | 8.0 | 0.00 | 0.01 | 0.01 | 56 | 1013.8 |
| 20260505213717 | 46 | 252 | 1.0 | 8.0 | 0.00 | 0.01 | 0.01 | 54 | 1013.8 |
| 20260505213153 | 47 | 247 | 2.0 | 8.0 | 0.00 | 0.01 | 0.01 | 51 | 1013.8 |
| 20260505212650 | 46 | 263 | 1.0 | 7.0 | 0.00 | 0.01 | 0.01 | 53 | 1013.9 |
| 20260505212151 | 46 | 256 | 2.0 | 7.0 | 0.00 | 0.01 | 0.01 | 54 | 1013.9 |
| 20260505211648 | 46 | 248 | 2.0 | 5.0 | 0.00 | 0.01 | 0.01 | 53 | 1014.1 |
| 20260505211205 | 46 | 271 | 2.0 | 5.0 | 0.00 | 0.01 | 0.01 | 54 | 1014.1 |
| 20260505210703 | 47 | 257 | 1.0 | 7.0 | 0.00 | 0.01 | 0.01 | 52 | 1014.2 |
| 20260505210201 | 46 | 37 | 0.0 | 7.0 | 0.00 | 0.01 | 0.01 | 55 | 1014.1 |
| 20260505205701 | 46 | 271 | 2.0 | 6.0 | 0.00 | 0.01 | 0.01 | 54 | 1014.1 |
| 20260505205219 | 46 | 259 | 1.0 | 4.0 | 0.00 | 0.01 | 0.01 | 53 | 1014.0 |
| 20260505204655 | 46 | 269 | 1.0 | 5.0 | 0.00 | 0.01 | 0.01 | 53 | 1014.0 |
| 20260505204154 | 46 | 347 | 1.0 | 6.0 | 0.00 | 0.01 | 0.01 | 56 | 1013.9 |
| 20260505203653 | 46 | 290 | 2.0 | 6.0 | 0.00 | 0.01 | 0.01 | 56 | 1013.9 |
| 20260505203151 | 45 | 170 | 1.0 | 6.0 | 0.00 | 0.01 | 0.01 | 57 | 1013.9 |
| 20260505202648 | 46 | 174 | 2.0 | 6.0 | 0.00 | 0.01 | 0.01 | 55 | 1013.9 |
| 20260505202206 | 46 | 274 | 1.0 | 5.0 | 0.00 | 0.01 | 0.01 | 57 | 1013.8 |
| 20260505201704 | 46 | 249 | 1.0 | 5.0 | 0.00 | 0.01 | 0.01 | 56 | 1013.8 |
| 20260505201201 | 46 | 270 | 1.0 | 6.0 | 0.00 | 0.01 | 0.01 | 59 | 1013.8 |
| 20260505200659 | 46 | 221 | 2.0 | 6.0 | 0.00 | 0.01 | 0.01 | 59 | 1013.8 |
| 20260505200200 | 46 | 255 | 2.0 | 6.0 | 0.00 | 0.01 | 0.01 | 60 | 1013.8 |
| 20260505195700 | 46 | 225 | 3.0 | 6.0 | 0.00 | 0.01 | 0.01 | 58 | 1013.8 |
| 20260505195157 | 46 | 222 | 2.0 | 6.0 | 0.00 | 0.01 | 0.01 | 57 | 1013.8 |
| 20260505194655 | 48 | 277 | 1.0 | 3.0 | 0.00 | 0.01 | 0.01 | 57 | 1013.8 |
| 20260505194153 | 47 | 250 | 0.0 | 5.0 | 0.00 | 0.01 | 0.01 | 59 | 1013.8 |
| 20260505193651 | 46 | 290 | 0.0 | 5.0 | 0.00 | 0.01 | 0.01 | 59 | 1013.8 |
| 20260505193208 | 47 | 250 | 1.0 | 5.0 | 0.00 | 0.01 | 0.01 | 59 | 1013.8 |
| 20260505192726 | 48 | 281 | 1.0 | 4.0 | 0.00 | 0.01 | 0.01 | 58 | 1013.8 |
| 20260505192202 | 48 | 224 | 2.0 | 7.0 | 0.00 | 0.01 | 0.01 | 59 | 1013.8 |
| 20260505191659 | 47 | 192 | 1.0 | 7.0 | 0.00 | 0.01 | 0.01 | 60 | 1013.7 |
| 20260505191155 | 47 | 262 | 0.0 | 3.0 | 0.00 | 0.01 | 0.01 | 61 | 1013.8 |
| 20260505190653 | 47 | 92 | 1.0 | 5.0 | 0.00 | 0.01 | 0.01 | 63 | 1013.7 |
| 20260505190150 | 47 | 259 | 2.0 | 5.0 | 0.00 | 0.01 | 0.01 | 62 | 1013.7 |
| 20260505185707 | 46 | 266 | 1.0 | 4.0 | 0.00 | 0.01 | 0.01 | 62 | 1013.6 |
| 20260505185205 | 45 | 288 | 0.0 | 5.0 | 0.00 | 0.01 | 0.01 | 69 | 1013.7 |
| 20260505184723 | 45 | 295 | 1.0 | 5.0 | 0.00 | 0.01 | 0.01 | 67 | 1013.7 |
| 20260505184159 | 44 | 221 | 0.0 | 3.0 | 0.00 | 0.01 | 0.01 | 71 | 1013.5 |
| 20260505183712 | 43 | 295 | 1.0 | 3.0 | 0.00 | 0.01 | 0.01 | 72 | 1013.6 |
| 20260505183153 | 42 | 259 | 1.0 | 2.0 | 0.00 | 0.01 | 0.01 | 75 | 1013.5 |
| 20260505182650 | 42 | 254 | 1.0 | 2.0 | 0.00 | 0.01 | 0.01 | 72 | 1013.6 |
| 20260505182207 | 42 | 301 | 0.0 | 3.0 | 0.00 | 0.01 | 0.01 | 73 | 1013.5 |
| 20260505181705 | 43 | 269 | 1.0 | 3.0 | 0.00 | 0.01 | 0.01 | 70 | 1013.5 |
| 20260505181203 | 43 | 356 | 1.0 | 3.0 | 0.00 | 0.01 | 0.01 | 72 | 1013.5 |
| 20260505180701 | 44 | 290 | 0.0 | 3.0 | 0.00 | 0.01 | 0.01 | 70 | 1013.4 |
| 20260505180220 | 44 | 311 | 0.0 | 3.0 | 0.00 | 0.01 | 0.01 | 74 | 1013.4 |
| 20260505175717 | 44 | 257 | 1.0 | 3.0 | 0.00 | 0.01 | 0.01 | 69 | 1013.3 |
| 20260505175154 | 44 | 217 | 1.0 | 3.0 | 0.00 | 0.01 | 0.01 | 69 | 1013.2 |
| 20260505174651 | 43 | 130 | 1.0 | 3.0 | 0.00 | 0.01 | 0.01 | 75 | 1013.2 |
| 20260505174209 | 43 | 244 | 1.0 | 2.0 | 0.00 | 0.01 | 0.01 | 73 | 1013.1 |
| 20260505173706 | 42 | 183 | 0.0 | 2.0 | 0.00 | 0.01 | 0.01 | 79 | 1013.0 |
| 20260505173204 | 42 | 215 | 0.0 | 2.0 | 0.00 | 0.01 | 0.01 | 77 | 1012.9 |
| 20260505172722 | 42 | 59 | 0.0 | 3.0 | 0.00 | 0.01 | 0.01 | 80 | 1012.9 |
| 20260505172159 | 41 | 302 | 1.0 | 3.0 | 0.00 | 0.01 | 0.01 | 80 | 1012.9 |
| 20260505171657 | 41 | 267 | 0.0 | 2.0 | 0.00 | 0.01 | 0.01 | 80 | 1013.0 |
| 20260505171155 | 42 | 275 | 0.0 | 2.0 | 0.00 | 0.01 | 0.01 | 79 | 1013.0 |
| 20260505170652 | 42 | 284 | 0.0 | 4.0 | 0.00 | 0.01 | 0.01 | 79 | 1013.0 |
| 20260505170230 | 40 | 323 | 0.0 | 4.0 | 0.00 | 0.01 | 0.01 | 81 | 1012.8 |
| 20260505165651 | 38 | 96 | 0.0 | 2.0 | 0.00 | 0.01 | 0.01 | 84 | 1012.9 |
| 20260505165149 | 38 | 219 | 0.0 | 2.0 | 0.01 | 0.01 | 0.01 | 86 | 1012.9 |
| 20260505164707 | 37 | 231 | 1.0 | 2.0 | 0.01 | 0.01 | 0.01 | 86 | 1012.9 |
| 20260505164205 | 37 | 274 | 0.0 | 2.0 | 0.01 | 0.01 | 0.01 | 85 | 1012.8 |
| 20260505163703 | 37 | 46 | 0.0 | 2.0 | 0.01 | 0.01 | 0.01 | 86 | 1012.8 |
| 20260505163201 | 37 | 248 | 0.0 | 2.0 | 0.01 | 0.01 | 0.01 | 85 | 1012.7 |
| 20260505162659 | 37 | 304 | 0.0 | 2.0 | 0.01 | 0.01 | 0.01 | 85 | 1012.6 |
| 20260505162157 | 37 | 131 | 0.0 | 2.0 | 0.01 | 0.01 | 0.01 | 86 | 1012.5 |
| 20260505161654 | 37 | 84 | 0.0 | 2.0 | 0.01 | 0.01 | 0.01 | 86 | 1012.5 |
| 20260505161153 | 37 | 229 | 0.0 | 1.0 | 0.01 | 0.01 | 0.01 | 87 | 1012.4 |
| 20260505160730 | 37 | 229 | 0.0 | 1.0 | 0.01 | 0.01 | 0.01 | 86 | 1012.3 |
| 20260505160207 | 37 | 248 | 0.0 | 2.0 | 0.01 | 0.01 | 0.01 | 86 | 1012.2 |
| 20260505153159 | 35 | 266 | 0.0 | 2.0 | 0.00 | 0.00 | 0.00 | 90 | 1012.0 |
| 20260505152658 | 35 | 267 | 0.0 | 2.0 | 0.00 | 0.00 | 0.00 | 90 | 1012.0 |
| 20260505152155 | 34 | 244 | 0.0 | 1.0 | 0.00 | 0.00 | 0.00 | 90 | 1012.0 |
| 20260505151653 | 34 | 237 | 0.0 | 1.0 | 0.00 | 0.00 | 0.00 | 90 | 1012.0 |
| 20260505151211 | 34 | 267 | 0.0 | 1.0 | 0.00 | 0.00 | 0.00 | 89 | 1011.9 |
| 20260505150707 | 34 | 288 | 0.0 | 2.0 | 0.00 | 0.00 | 0.00 | 89 | 1011.9 |
| 20260505150205 | 34 | 257 | 0.0 | 2.0 | 0.00 | 0.00 | 0.00 | 90 | 1011.7 |
| 20260505140157 | 33 | 51 | 0.0 | 1.0 | 0.00 | 0.00 | 0.00 | 88 | 1011.4 |
| 20260505130206 | 32 | 257 | 0.0 | 1.0 | 0.00 | 0.00 | 0.00 | 89 | 1011.6 |
| 20260505124657 | 32 | 127 | 0.0 | 1.0 | 0.00 | 0.00 | 0.00 | 89 | 1011.5 |
| 20260505124156 | 32 | 128 | 0.0 | 1.0 | 0.00 | 0.00 | 0.00 | 89 | 1011.5 |
| 20260505123714 | 32 | 217 | 0.0 | 1.0 | 0.00 | 0.00 | 0.00 | 89 | 1011.5 |
| 20260505123231 | 32 | 217 | 0.0 | 1.0 | 0.00 | 0.00 | 0.00 | 88 | 1011.6 |
| 20260505122651 | 32 | 161 | 0.0 | 2.0 | 0.00 | 0.00 | 0.00 | 88 | 1011.6 |
| 20260505122208 | 32 | 259 | 0.0 | 2.0 | 0.00 | 0.00 | 0.00 | 88 | 1011.4 |
| 20260505121707 | 31 | 252 | 0.0 | 1.0 | 0.00 | 0.00 | 0.00 | 87 | 1011.5 |
| 20260505121224 | 32 | 252 | 0.0 | 1.0 | 0.00 | 0.00 | 0.00 | 87 | 1011.4 |
| 20260505120700 | 32 | 253 | 0.0 | 2.0 | 0.00 | 0.00 | 0.00 | 87 | 1011.4 |
| 20260505120158 | 32 | 253 | 0.0 | 2.0 | 0.00 | 0.00 | 0.00 | 86 | 1011.3 |
| 20260505115658 | 32 | 250 | 0.0 | 1.0 | 0.00 | 0.00 | 0.00 | 86 | 1011.5 |
| 20260505115156 | 32 | 25 | 0.0 | 1.0 | 0.00 | 0.00 | 0.00 | 87 | 1011.6 |
| 20260505114654 | 32 | 269 | 0.0 | 1.0 | 0.00 | 0.00 | 0.00 | 87 | 1011.7 |
| 20260505114213 | 32 | 218 | 0.0 | 1.0 | 0.00 | 0.00 | 0.00 | 87 | 1011.6 |
| 20260505113710 | 32 | 183 | 0.0 | 1.0 | 0.00 | 0.00 | 0.00 | 87 | 1011.6 |
| 20260505113207 | 32 | 149 | 0.0 | 1.0 | 0.00 | 0.00 | 0.00 | 87 | 1011.6 |
| 20260505112705 | 32 | 241 | 0.0 | 1.0 | 0.00 | 0.00 | 0.00 | 87 | 1011.6 |
| 20260505112202 | 32 | 75 | 0.0 | 1.0 | 0.00 | 0.00 | 0.00 | 88 | 1011.5 |
| 20260505111700 | 32 | 232 | 0.0 | 1.0 | 0.00 | 0.00 | 0.00 | 88 | 1011.4 |
| 20260505111158 | 32 | 257 | 0.0 | 2.0 | 0.00 | 0.00 | 0.00 | 88 | 1011.3 |
| 20260505110656 | 32 | 252 | 0.0 | 2.0 | 0.00 | 0.00 | 0.00 | 89 | 1011.3 |
| 20260505110158 | 32 | 154 | 0.0 | 1.0 | 0.00 | 0.00 | 0.00 | 89 | 1011.4 |
| 20260505102157 | 32 | 261 | 0.0 | 2.0 | 0.00 | 0.00 | 0.00 | 90 | 1011.5 |
| 20260505101654 | 32 | 257 | 0.0 | 2.0 | 0.00 | 0.00 | 0.00 | 91 | 1011.6 |
| 20260505101212 | 32 | 261 | 1.0 | 2.0 | 0.00 | 0.00 | 0.00 | 91 | 1011.6 |
| 20260505100710 | 32 | 252 | 0.0 | 1.0 | 0.00 | 0.00 | 0.00 | 91 | 1011.8 |
| 20260505100206 | 32 | 252 | 0.0 | 1.0 | 0.00 | 0.00 | 0.00 | 91 | 1011.9 |
| 20260505095726 | 32 | 252 | 0.0 | 1.0 | 0.00 | 0.00 | 0.00 | 91 | 1011.9 |
| 20260505095203 | 32 | 252 | 0.0 | 2.0 | 0.00 | 0.00 | 0.00 | 91 | 1011.8 |
| 20260505094701 | 32 | 252 | 0.0 | 3.0 | 0.00 | 0.00 | 0.00 | 91 | 1011.8 |
| 20260505094219 | 32 | 280 | 1.0 | 3.0 | 0.00 | 0.00 | 0.00 | 91 | 1011.8 |
| 20260505093700 | 33 | 256 | 0.0 | 3.0 | 0.00 | 0.00 | 0.00 | 91 | 1011.9 |
| 20260505093158 | 33 | 243 | 1.0 | 3.0 | 0.00 | 0.00 | 0.00 | 91 | 1012.0 |
| 20260505092655 | 33 | 255 | 0.0 | 1.0 | 0.00 | 0.00 | 0.00 | 92 | 1012.1 |
| 20260505092152 | 33 | 248 | 0.0 | 1.0 | 0.00 | 0.00 | 0.00 | 91 | 1012.1 |
| 20260505091711 | 33 | 196 | 0.0 | 1.0 | 0.00 | 0.00 | 0.00 | 91 | 1012.1 |
| 20260505091222 | 33 | 246 | 0.0 | 2.0 | 0.00 | 0.00 | 0.00 | 90 | 1012.0 |
| 20260505090653 | 33 | 253 | 0.0 | 2.0 | 0.00 | 0.00 | 0.00 | 90 | 1012.1 |
| 20260505090211 | 33 | 252 | 0.0 | 2.0 | 0.00 | 0.00 | 0.00 | 89 | 1012.2 |
| 20260505085729 | 33 | 254 | 0.0 | 2.0 | 0.00 | 0.00 | 0.00 | 89 | 1012.3 |
| 20260505085206 | 33 | 250 | 0.0 | 2.0 | 0.00 | 0.00 | 0.00 | 89 | 1012.2 |
| 20260505084703 | 33 | 252 | 0.0 | 3.0 | 0.00 | 0.00 | 0.00 | 89 | 1012.2 |
| 20260505084201 | 32 | 257 | 0.0 | 3.0 | 0.00 | 0.00 | 0.00 | 89 | 1012.3 |
| 20260505083658 | 32 | 255 | 0.0 | 2.0 | 0.00 | 0.00 | 0.00 | 89 | 1012.4 |
| 20260505083156 | 32 | 250 | 0.0 | 2.0 | 0.00 | 0.00 | 0.00 | 89 | 1012.4 |
| 20260505082654 | 32 | 248 | 0.0 | 1.0 | 0.00 | 0.00 | 0.00 | 89 | 1012.5 |
| 20260505082232 | 32 | 253 | 0.0 | 1.0 | 0.00 | 0.00 | 0.00 | 88 | 1012.6 |
| 20260505081709 | 32 | 240 | 0.0 | 1.0 | 0.00 | 0.00 | 0.00 | 88 | 1012.6 |
| 20260505081207 | 32 | 234 | 0.0 | 1.0 | 0.00 | 0.00 | 0.00 | 88 | 1012.7 |
| 20260505080705 | 31 | 234 | 0.0 | 1.0 | 0.00 | 0.00 | 0.00 | 88 | 1012.8 |
| 20260505080208 | 31 | 240 | 0.0 | 1.0 | 0.00 | 0.00 | 0.00 | 88 | 1012.8 |
| 20260505075706 | 32 | 153 | 0.0 | 1.0 | 0.00 | 0.00 | 0.00 | 88 | 1012.8 |
| 20260505075202 | 32 | 259 | 0.0 | 0.0 | 0.00 | 0.00 | 0.00 | 88 | 1013.0 |
| 20260505074659 | 32 | 259 | 0.0 | 2.0 | 0.00 | 0.00 | 0.00 | 88 | 1012.9 |
| 20260505074218 | 32 | 254 | 0.0 | 2.0 | 0.00 | 0.00 | 0.00 | 88 | 1012.9 |
| 20260505073654 | 32 | 252 | 0.0 | 1.0 | 0.00 | 0.00 | 0.00 | 88 | 1012.9 |
| 20260505073212 | 32 | 256 | 0.0 | 2.0 | 0.00 | 0.00 | 0.00 | 88 | 1012.9 |
| 20260505072709 | 32 | 261 | 0.0 | 2.0 | 0.00 | 0.00 | 0.00 | 88 | 1012.9 |
| 20260505072207 | 32 | 256 | 0.0 | 2.0 | 0.00 | 0.00 | 0.00 | 88 | 1012.9 |
| 20260505071704 | 32 | 245 | 0.0 | 3.0 | 0.00 | 0.00 | 0.00 | 88 | 1012.9 |
| 20260505071201 | 32 | 260 | 1.0 | 4.0 | 0.00 | 0.00 | 0.00 | 87 | 1012.7 |
| 20260505070216 | 32 | 259 | 1.0 | 4.0 | 0.00 | 0.00 | 0.00 | 87 | 1012.8 |
| 20260505065734 | 32 | 259 | 2.0 | 4.0 | 0.00 | 0.00 | 0.00 | 86 | 1012.9 |
| 20260505065209 | 32 | 274 | 2.0 | 4.0 | 0.00 | 0.00 | 0.00 | 86 | 1012.8 |
| 20260505064728 | 32 | 255 | 2.0 | 4.0 | 0.00 | 0.00 | 0.00 | 86 | 1013.1 |
| 20260505064205 | 33 | 247 | 2.0 | 4.0 | 0.00 | 0.00 | 0.00 | 86 | 1013.1 |
| 20260505063703 | 33 | 285 | 1.0 | 4.0 | 0.00 | 0.00 | 0.00 | 85 | 1013.1 |
| 20260505063221 | 33 | 256 | 2.0 | 4.0 | 0.00 | 0.00 | 0.00 | 85 | 1013.1 |
| 20260505062657 | 33 | 251 | 1.0 | 3.0 | 0.00 | 0.00 | 0.00 | 85 | 1013.3 |
| 20260505062159 | 33 | 271 | 1.0 | 3.0 | 0.00 | 0.00 | 0.00 | 85 | 1013.4 |
| 20260505061725 | 33 | 256 | 1.0 | 3.0 | 0.00 | 0.00 | 0.00 | 85 | 1013.5 |
| 20260505061205 | 33 | 248 | 1.0 | 2.0 | 0.00 | 0.00 | 0.00 | 84 | 1013.7 |
| 20260505060702 | 33 | 265 | 1.0 | 2.0 | 0.00 | 0.00 | 0.00 | 84 | 1013.7 |
| 20260505060200 | 33 | 274 | 0.0 | 2.0 | 0.00 | 0.00 | 0.00 | 85 | 1013.7 |
| 20260505055659 | 32 | 271 | 0.0 | 3.0 | 0.00 | 0.00 | 0.00 | 84 | 1013.7 |
| 20260505055157 | 33 | 249 | 1.0 | 3.0 | 0.00 | 0.00 | 0.00 | 85 | 1013.7 |
| 20260505054655 | 33 | 253 | 0.0 | 2.0 | 0.00 | 0.00 | 0.00 | 85 | 1013.8 |
| 20260505054233 | 33 | 263 | 0.0 | 2.0 | 0.00 | 0.00 | 0.00 | 85 | 1013.8 |
| 20260505053709 | 33 | 257 | 0.0 | 2.0 | 0.00 | 0.00 | 0.00 | 85 | 1013.8 |
| 20260505053227 | 33 | 273 | 0.0 | 2.0 | 0.00 | 0.00 | 0.00 | 85 | 1013.8 |
| 20260505052704 | 33 | 270 | 0.0 | 2.0 | 0.00 | 0.00 | 0.00 | 84 | 1013.9 |
| 20260505052202 | 33 | 280 | 0.0 | 1.0 | 0.00 | 0.00 | 0.00 | 85 | 1013.8 |
| 20260505051720 | 33 | 255 | 0.0 | 3.0 | 0.00 | 0.00 | 0.00 | 84 | 1014.1 |
| 20260505051156 | 33 | 254 | 0.0 | 4.0 | 0.00 | 0.00 | 0.00 | 84 | 1014.1 |
| 20260505050654 | 33 | 256 | 1.0 | 4.0 | 0.00 | 0.00 | 0.00 | 84 | 1014.1 |
| 20260505050232 | 33 | 260 | 1.0 | 4.0 | 0.00 | 0.00 | 0.00 | 85 | 1014.2 |
| 20260505041714 | 34 | 276 | 0.0 | 3.0 | 0.00 | 0.00 | 0.00 | 85 | 1014.0 |
| 20260505041212 | 34 | 252 | 0.0 | 3.0 | 0.00 | 0.00 | 0.00 | 85 | 1013.9 |
| 20260505040710 | 34 | 244 | 0.0 | 2.0 | 0.00 | 0.00 | 0.00 | 85 | 1013.9 |
| 20260505040208 | 34 | 262 | 0.0 | 2.0 | 0.00 | 0.00 | 0.00 | 85 | 1013.9 |
| 20260505035706 | 34 | 262 | 1.0 | 2.0 | 0.00 | 0.00 | 0.00 | 85 | 1013.8 |
| 20260505035204 | 35 | 238 | 0.0 | 2.0 | 0.00 | 0.00 | 0.00 | 83 | 1013.8 |
| 20260505034702 | 35 | 273 | 0.0 | 2.0 | 0.00 | 0.00 | 0.00 | 81 | 1013.8 |
| 20260505034159 | 35 | 229 | 0.0 | 2.0 | 0.00 | 0.00 | 0.00 | 80 | 1013.7 |
| 20260505033657 | 35 | 222 | 0.0 | 1.0 | 0.00 | 0.00 | 0.00 | 79 | 1013.8 |
| 20260505033155 | 35 | 49 | 0.0 | 2.0 | 0.00 | 0.00 | 0.00 | 79 | 1013.7 |
| 20260505032712 | 35 | 257 | 1.0 | 2.0 | 0.00 | 0.00 | 0.00 | 78 | 1013.7 |
| 20260505032210 | 35 | 286 | 0.0 | 2.0 | 0.00 | 0.00 | 0.00 | 78 | 1013.8 |
| 20260505031712 | 35 | 289 | 0.0 | 2.0 | 0.00 | 0.00 | 0.00 | 78 | 1013.8 |
| 20260505031209 | 35 | 257 | 0.0 | 2.0 | 0.00 | 0.00 | 0.00 | 79 | 1013.8 |
| 20260505030706 | 35 | 259 | 0.0 | 2.0 | 0.00 | 0.00 | 0.00 | 80 | 1013.8 |
| 20260505030205 | 35 | 248 | 0.0 | 2.0 | 0.00 | 0.00 | 0.00 | 80 | 1013.8 |
| 20260505025702 | 35 | 269 | 0.0 | 2.0 | 0.00 | 0.00 | 0.00 | 80 | 1013.8 |
| 20260505025200 | 35 | 225 | 0.0 | 2.0 | 0.00 | 0.00 | 0.00 | 81 | 1013.8 |
| 20260505024717 | 35 | 309 | 0.0 | 2.0 | 0.00 | 0.00 | 0.00 | 79 | 1013.6 |
| 20260505024215 | 35 | 258 | 0.0 | 1.0 | 0.00 | 0.00 | 0.00 | 78 | 1013.6 |
| 20260505023733 | 35 | 258 | 0.0 | 4.0 | 0.00 | 0.00 | 0.00 | 79 | 1013.7 |
| 20260505023208 | 35 | 166 | 1.0 | 2.0 | 0.00 | 0.00 | 0.00 | 79 | 1013.6 |
| 20260505022706 | 35 | 262 | 0.0 | 2.0 | 0.00 | 0.00 | 0.00 | 78 | 1013.6 |
| 20260505022205 | 36 | 233 | 0.0 | 2.0 | 0.00 | 0.00 | 0.00 | 78 | 1013.7 |
| 20260505021702 | 36 | 286 | 1.0 | 3.0 | 0.00 | 0.00 | 0.00 | 78 | 1013.7 |
| 20260505021220 | 36 | 248 | 0.0 | 3.0 | 0.00 | 0.00 | 0.00 | 78 | 1013.7 |
| 20260505020657 | 36 | 257 | 0.0 | 2.0 | 0.00 | 0.00 | 0.00 | 78 | 1013.6 |
| 20260505020215 | 36 | 172 | 0.0 | 2.0 | 0.00 | 0.00 | 0.00 | 79 | 1013.7 |
| 20260505015715 | 37 | 160 | 0.0 | 2.0 | 0.00 | 0.00 | 0.00 | 80 | 1013.7 |
| 20260505015157 | 37 | 246 | 0.0 | 2.0 | 0.00 | 0.00 | 0.00 | 79 | 1013.8 |
| 20260505014714 | 37 | 238 | 1.0 | 2.0 | 0.00 | 0.00 | 0.00 | 79 | 1013.5 |
| 20260505014212 | 37 | 58 | 0.0 | 5.0 | 0.00 | 0.00 | 0.00 | 79 | 1013.7 |
| 20260505013710 | 37 | 257 | 1.0 | 5.0 | 0.00 | 0.00 | 0.00 | 78 | 1013.8 |
| 20260505013208 | 37 | 101 | 0.0 | 2.0 | 0.00 | 0.00 | 0.00 | 76 | 1013.9 |
| 20260505012706 | 37 | 45 | 0.0 | 2.0 | 0.00 | 0.00 | 0.00 | 76 | 1013.8 |
| 20260505012224 | 37 | 201 | 0.0 | 1.0 | 0.00 | 0.00 | 0.00 | 75 | 1013.9 |
| 20260505011721 | 37 | 25 | 0.0 | 3.0 | 0.00 | 0.00 | 0.00 | 75 | 1013.9 |
| 20260505011158 | 38 | 266 | 0.0 | 4.0 | 0.00 | 0.00 | 0.00 | 74 | 1014.0 |
| 20260505010715 | 38 | 106 | 0.0 | 4.0 | 0.00 | 0.00 | 0.00 | 73 | 1014.1 |
| 20260505010213 | 38 | 250 | 0.0 | 3.0 | 0.00 | 0.00 | 0.00 | 74 | 1014.1 |
| 20260505005658 | 38 | 39 | 0.0 | 3.0 | 0.00 | 0.00 | 0.00 | 72 | 1014.1 |
| 20260505005216 | 39 | 86 | 0.0 | 1.0 | 0.00 | 0.00 | 0.00 | 71 | 1014.2 |